This demonstration page uses our WeatherBlox Daily Observations layout. Learn more.

Left ArrowRight Arrow

Hourly Observations for May 28, 2018

Temp ( °F °C ) Dew Point ( °F °C ) Humidity (%) Winds ( mph kmh ) Pressure ( in mb ) Visibility ( mi km ) Precip ( " mm )
12:15 am 00:15 Clear 75 24 57 14 54 54 SSE 7 11 29.8 1009 10 16.0934 0 0
12:35 am 00:35 Clear 74 23.5 57 14 55 55 SE 3 6 29.83 1010 10 16.0934 0 0
12:55 am 00:55 Clear 73 22.6 57 14.1 59 59 Calm 29.83 1010 10 16.0934 0 0
1:15 am 01:15 Partly Cloudy with Nearby Thunderstorms 73 23 58 14.2 58 58 N 6 9 29.83 1010 10 16.0934 0 0
1:35 am 01:35 Partly Cloudy 73 22.5 58 14.6 61 61 Calm 29.83 1010 10 16.0934 0 0
1:55 am 01:55 Mostly Cloudy 74 23.2 58 14.6 59 59 NW 9 15 29.85 1011 10 16.0934 0 0
2:15 am 02:15 Cloudy 72 22.1 57 14.1 61 61 N 14 22 29.88 1012 10 16.0934 0 0
2:35 am 02:35 Mostly Cloudy 71 21.5 58 14.5 65 65 NE 12 19 29.88 1012 10 16.0934 0 0
2:55 am 02:55 Partly Cloudy with Light Rain 70 20.9 59 14.8 68 68 NE 8 13 29.85 1011 10 16.0934 0 0
3:15 am 03:15 Mostly Cloudy 68 19.8 60 15.5 76 76 NNE 5 7 29.88 1012 10 16.0934 0 0
3:35 am 03:35 Partly Cloudy 67 19.2 60 15.6 80 80 NNE 7 11 29.88 1012 10 16.0934 0 0
3:55 am 03:55 Partly Cloudy 65 18.6 61 16 85 85 NE 8 13 29.88 1012 10 16.0934 0 0
4:15 am 04:15 Partly Cloudy 65 18.6 60 15.5 82 82 ENE 9 15 29.83 1010 10 16.0934 0 0
4:35 am 04:35 Clear 65 18.4 59 15.2 82 82 ENE 10 17 29.85 1011 10 16.0934 0 0
4:55 am 04:55 Clear 66 18.9 58 14.5 76 76 ENE 12 19 29.85 1011 10 16.0934 0 0
5:15 am 05:15 Clear 66 18.8 58 14.3 75 75 E 9 15 29.88 1012 10 16.0934 0 0
5:35 am 05:35 Clear 65 18.1 58 14.3 79 79 E 10 17 29.88 1012 10 16.0934 0 0
5:55 am 05:55 Partly Cloudy 64 18 58 14.4 80 80 E 9 15 29.88 1012 10 16.0934 0 0
6:15 am 06:15 Partly Cloudy 64 18 58 14.6 81 81 ENE 9 15 29.88 1012 10 16.0934 0 0
6:35 am 06:35 Sunny 64 18 58 14.7 81 81 ENE 9 15 29.88 1012 10 16.0934 0 0
6:55 am 06:55 Sunny 65 18.6 59 15.1 80 80 ENE 9 15 29.88 1012 10 16.0934 0 0
7:15 am 07:15 Partly Cloudy 67 19.3 60 15.5 79 79 E 10 17 29.85 1011 10 16.0934 0 0
7:35 am 07:35 Partly Cloudy 69 20.3 62 16.5 79 79 E 14 22 29.85 1011 10 16.0934 0 0
7:55 am 07:55 Partly Cloudy 71 21.5 63 17.1 76 76 E 17 28 29.85 1011 10 16.0934 0 0
8:15 am 08:15 Partly Cloudy 72 22.2 64 17.6 75 75 E 18 30 29.8 1009 10 16.0934 0 0
8:35 am 08:35 Sunny 73 23 64 17.9 73 73 E 18 30 29.8 1009 10 16.0934 0 0
8:50 am 08:50 Sunny 73 22.9 64 17.9 74 74 E 15 24 29.83 1010 10 16.0934 0 0
9:15 am 09:15 Sunny 75 23.7 65 18.1 71 71 E 16 26 29.83 1010 10 16.0934 0 0
9:35 am 09:35 Sunny 76 24.2 65 18.4 70 70 E 10 17 29.85 1011 10 16.0934 0 0
9:55 am 09:55 Mostly Cloudy 76 24.2 65 18.6 71 71 E 8 13 29.85 1011 10 16.0934 0 0
10:15 am 10:15 Mostly Cloudy 76 24.7 65 18.6 69 69 E 6 9 29.85 1011 10 16.0934 0 0
10:35 am 10:35 Mostly Cloudy 77 24.9 66 19.1 70 70 E 8 13 29.85 1011 10 16.0934 0 0
10:55 am 10:55 Cloudy 77 25 66 18.8 69 69 SE 6 9 29.85 1011 10 16.0934 0 0
11:18 am 11:18 Cloudy 77 25 64 18 65 65 SE 7 11 29.85 1011 10 16.0934 0 0
11:35 am 11:35 Mostly Cloudy 78 25.7 66 19 67 67 Calm 29.85 1011 10 16.0934 0 0
11:55 am 11:55 Mostly Cloudy with Nearby Thunderstorms 80 26.6 66 19.1 64 64 N 5 7 29.83 1010 10 16.0934 0 0
12:15 pm 12:15 Cloudy 72 22 61 16 69 69 N 22 35 29.91 1013 10 16.0934 0 0
12:35 pm 12:35 Cloudy with Thunderstorms 71 21.7 60 15.8 69 69 N 25 41 29.91 1013 7 11.26538 0 0
12:55 pm 12:55 Mostly Cloudy 69 20.6 63 17 80 80 NNE 26 43 29.88 1012 10 16.0934 0 0
1:15 pm 13:15 Partly Cloudy 69 20.7 62 16.4 77 77 NNE 29 46 29.88 1012 10 16.0934 0 0
1:35 pm 13:35 Partly Cloudy 69 20.8 62 16.8 78 78 NE 31 50 29.85 1011 10 16.0934 0 0
1:55 pm 13:55 Sunny 70 21.2 62 16.8 76 76 ENE 38 61 29.83 1010 10 16.0934 0 0
2:15 pm 14:15 Sunny with Nearby Thunderstorms 69 20.3 61 16.1 77 77 ENE 31 50 29.83 1010 10 16.0934 0 0
2:35 pm 14:35 Mostly Cloudy 67 19.7 62 16.5 82 82 ENE 25 41 29.85 1011 10 16.0934 0 0
2:55 pm 14:55 Mostly Cloudy with Drizzle 65 18.6 63 17.1 91 91 E 29 46 29.88 1012 10 16.0934 0 0
3:15 pm 15:15 Cloudy 66 18.8 65 18.1 96 96 E 26 43 29.83 1010 10 16.0934 0 0
3:35 pm 15:35 Windy with Storms Likely 65 18.6 63 17.1 91 91 ESE 29 46 29.88 1012 10 16.0934 0.01 0.254
3:55 pm 15:55 Windy with Storms Likely 65 18.5 61 16 85 85 ESE 32 52 29.88 1012 10 16.0934 0.01 0.254
4:15 pm 16:15 Windy with Storms Likely 65 18.3 60 15.6 84 84 ESE 30 48 29.88 1012 10 16.0934 0 0
4:35 pm 16:35 Cloudy with Light Rain 64 17.6 60 15.5 88 88 E 28 44 29.91 1013 7 11.26538 0.01 0.254
4:55 pm 16:55 Cloudy with Light Rain 64 17.5 60 15.3 87 87 E 26 43 29.88 1012 10 16.0934 0.02 0.508
5:15 pm 17:15 Cloudy 65 18.5 59 15.1 81 81 E 18 30 29.91 1013 10 16.0934 0 0
5:35 pm 17:35 Cloudy with Light Rain 64 17.9 59 15.2 84 84 ESE 20 31 29.91 1013 10 16.0934 0.01 0.254
5:55 pm 17:55 Windy with Storms Likely 65 18.6 58 14.3 76 76 E 23 37 29.88 1012 10 16.0934 0.02 0.508
6:15 pm 18:15 Windy with Storms Likely 66 19 57 14.1 73 73 E 24 39 29.85 1011 10 16.0934 0 0
6:35 pm 18:35 Cloudy with Light Rain 64 17.6 59 15 85 85 ESE 24 39 29.88 1012 10 16.0934 0 0
6:55 pm 18:55 Cloudy with Light Rain 63 17.2 59 14.9 86 86 ESE 24 39 29.88 1012 10 16.0934 0.04 1.016
7:15 pm 19:15 Cloudy 64 17.6 58 14.6 83 83 ESE 16 26 29.88 1012 10 16.0934 0.01 0.254
7:35 pm 19:35 Cloudy with Thunderstorms 64 18 58 14.2 79 79 SE 14 22 29.88 1012 10 16.0934 0.03 0.762
7:55 pm 19:55 Cloudy with Rain 65 18.2 56 13.6 75 75 SSE 10 17 29.91 1013 10 16.0934 0.06 1.524
8:15 pm 20:15 Cloudy 63 17.1 59 14.9 87 87 S 8 13 29.91 1013 10 16.0934 0.03 0.762
8:35 pm 20:35 Cloudy 64 17.7 58 14.3 81 81 SW 8 13 29.94 1014 10 16.0934 0.05 1.27
8:55 pm 20:55 Cloudy with Rain 64 17.5 58 14.2 81 81 SW 10 17 29.97 1015 10 16.0934 0.08 2.032
9:15 pm 21:15 Cloudy with Rain 62 16.5 59 15.1 92 92 SW 12 19 29.97 1015 10 16.0934 0.05 1.27
9:35 pm 21:35 Cloudy with Light Rain 62 16.6 59 15.1 91 91 SW 12 19 29.94 1014 10 16.0934 0.07 1.778
9:55 pm 21:55 Cloudy with Rain 62 16.6 59 15.2 92 92 SSW 10 17 29.94 1014 10 16.0934 0.09 2.286
10:15 pm 22:15 Cloudy 62 16.6 59 15.1 91 91 SW 7 11 29.94 1014 10 16.0934 0.03 0.762
10:35 pm 22:35 Cloudy with Thunderstorms 62 16.5 59 14.8 90 90 WNW 10 17 29.94 1014 10 16.0934 0.08 2.032
10:55 pm 22:55 Cloudy with Thunderstorms 63 17 58 14.2 84 84 W 16 26 29.91 1013 10 16.0934 0.13 3.302
11:15 pm 23:15 Cloudy with Rain 62 16.6 58 14.5 88 88 W 16 26 29.94 1014 10 16.0934 0.04 1.016
11:35 pm 23:35 Cloudy with Rain 62 16.5 59 15 91 91 WSW 15 24 29.94 1014 10 16.0934 0.08 2.032
11:55 pm 23:55 Cloudy with Rain 61 16 59 15.2 95 95 W 17 28 29.94 1014 10 16.0934 0.11 2.794

Powered by AerisWeather